This demonstration page uses our WeatherBlox Daily Observations layout. Learn more.

Left ArrowRight Arrow

Hourly Observations for May 27, 2022

Temp ( °F °C ) Dew Point ( °F °C ) Humidity (%) Winds ( mph kmh ) Pressure ( in mb ) Visibility ( mi km ) Precip ( " mm )
12:56 am 00:56 Clear 50 10.1 49 9.5 96 96 Calm 29.97 1015 10 16 0.00 0.00
1:56 am 01:56 Clear 48 9 48 8.7 98 98 Calm 29.97 1015 10 16 0.00 0.00
2:56 am 02:56 Clear 48 8.9 48 8.7 99 99 Calm 29.99 1016 10 16 0.00 0.00
3:21 am 03:21 Clear with Mist and Fog 46 8 45 7 93 93 Calm 29.99 1016 1 2 0.00 0.00
3:36 am 03:36 Clear with Fog 45 7 45 7 100 100 Calm 29.99 1016 1 1 0.00 0.00
3:45 am 03:45 Clear with Fog 46 8 46 8 100 100 Calm 29.99 1016 1 1 0.00 0.00
3:48 am 03:48 Clear with Mist and Fog 46 8 46 8 100 100 Calm 29.99 1016 7 11 0.00 0.00
3:56 am 03:56 Clear with Mist and Fog 46 7.5 45 7.4 99 99 Calm 29.99 1016 7 11 0.00 0.00
4:11 am 04:11 Clear with Fog 45 7 45 7 100 100 Calm 29.99 1016 3 5 0.00 0.00
4:21 am 04:21 Clear with Mist and Fog 46 8 45 7 93 93 Calm 29.98 1015 3 5 0.00 0.00
4:56 am 04:56 Clear with Mist and Fog 46 7.7 46 7.6 99 99 Calm 30.00 1016 6 10 0.00 0.00
5:56 am 05:56 Mostly Cloudy with Mist and Fog 44 6.9 44 6.8 99 99 Calm 30.02 1017 2 2 0.00 0.00
6:01 am 06:01 Mostly Cloudy with Mist and Fog 45 7 45 7 100 100 Calm 30.02 1017 1 2 0.00 0.00
6:08 am 06:08 Mostly Cloudy with Mist and Fog 45 7 45 7 100 100 WNW 3 6 30.03 1017 2 3 0.00 0.00
6:56 am 06:56 Sunny with Mist and Fog 47 8.3 47 8.3 100 100 Calm 30.02 1017 7 11 0.00 0.00
7:11 am 07:11 Sunny with Mist and Fog 48 9 48 9 100 100 Calm 30.04 1017 3 4 0.00 0.00
7:41 am 07:41 Sunny with Mist and Fog 50 10 50 10 100 100 Calm 30.03 1017 5 8 0.00 0.00
7:56 am 07:56 Sunny 50 9.9 50 9.9 100 100 Calm 30.04 1017 7 11 0.00 0.00
8:56 am 08:56 Sunny 56 13.1 51 10.8 86 86 Calm 30.03 1017 10 16 0.00 0.00
9:56 am 09:56 Sunny 62 16.9 51 10.5 66 66 S 3 6 30.03 1017 10 16 0.00 0.00
10:56 am 10:56 Sunny 66 18.9 53 11.5 62 62 ESE 5 7 30.01 1016 10 16 0.00 0.00
11:56 am 11:56 Sunny 69 20.6 55 12.6 60 60 SSE 8 13 30.01 1016 10 16 0.00 0.00
12:56 pm 12:56 Sunny 73 22.5 56 13.5 57 57 S 7 11 29.98 1015 10 16 0.00 0.00
1:56 pm 13:56 Sunny 75 24 58 14.4 55 55 SSE 6 9 29.96 1015 10 16 0.00 0.00
2:56 pm 14:56 Sunny 77 24.9 57 13.7 50 50 SE 13 20 29.93 1014 10 16 0.00 0.00
3:56 pm 15:56 Sunny 78 25.8 55 12.6 44 44 SE 10 17 29.92 1013 10 16 0.00 0.00
4:56 pm 16:56 Sunny 79 26.1 56 13.6 46 46 SSE 14 22 29.89 1012 10 16 0.00 0.00
5:56 pm 17:56 Sunny 79 25.9 56 13.4 46 46 SSE 15 24 29.89 1012 10 16 0.00 0.00
6:56 pm 18:56 Sunny 78 25.4 56 13.2 47 47 SSE 16 26 29.86 1011 10 16 0.00 0.00
7:56 pm 19:56 Sunny 76 24.3 56 13.2 50 50 SE 13 20 29.85 1011 10 16 0.00 0.00
8:56 pm 20:56 Clear 71 21.4 56 13.6 61 61 SE 7 11 29.85 1011 10 16 0.00 0.00
9:56 pm 21:56 Clear 69 20.4 54 12.4 60 60 SSE 8 13 29.87 1012 10 16 0.00 0.00
10:56 pm 22:56 Clear 67 19.4 53 11.9 62 62 SE 8 13 29.87 1012 10 16 0.00 0.00
11:56 pm 23:56 Clear 65 18.4 54 12.4 68 68 SSE 7 11 29.85 1011 10 16 0.00 0.00

Powered by AerisWeather